Regional Weather Roundup
Issued by NWS Cleveland, OH

Home | Current Version | Previous Version | Text Only | Print | Product List | Glossary Off
Versions: 1 2 3 4 5 6 7 8 9 10 11 12 13 14 15 16 17 18 19 20 21 22 23 24 25 26 27 28 29 30 31 32 33 34 35 36 37 38 39 40 41 42 43 44 45 46 47 48 49 50

000
ASUS41 KCLE 031510
RWRCLE
OHIO REGIONAL WEATHER ROUNDUP
NATIONAL WEATHER SERVICE WILMINGTON, OH
1100 AM EDT SUN MAY 03 2015

NOTE: "FAIR" INDICATES FEW OR NO CLOUDS BELOW 12,000 FEET WITH NO
SIGNIFICANT WEATHER AND/OR OBSTRUCTIONS TO VISIBILITY.

OHZ001>008-015>018-024>027-034-035-043-044-031600-
   NORTHWEST OHIO

CITY           SKY/WX    TMP DP  RH WIND       PRES   REMARKS
DEFIANCE       SUNNY     72  45  37 SW13      30.08F
FINDLAY        SUNNY     72  46  39 SW9       30.09S
TOLEDO EXPRESS SUNNY     71  43  36 W12       30.08S
TOLEDO EXEC    SUNNY     71  43  36 W10       30.09S
LIMA           SUNNY     69  47  45 SW9       30.10F
$$

OHZ009>014-019>023-028>033-038-089-031600-
   NORTHEAST OHIO

CITY           SKY/WX    TMP DP  RH WIND       PRES   REMARKS
CLE-HOPKINS    SUNNY     73  45  36 W12       30.12S
CLE-LAKEFRONT  SUNNY     70  45  40 W6        30.10R
CUY CO. ARPT   SUNNY     73  45  35 W9        30.12R
LORAIN-ELYRIA  SUNNY     72  42  34 W5        30.11S
ASHTABULA      SUNNY     72  41  32 W7        30.11S
AKRON-CANTON   MOSUNNY   72  43  35 SW12      30.13S
WOOSTER        SUNNY     71  44  37 W10       30.13S
MANSFIELD      SUNNY     72  43  35 W5        30.12S
YOUNGSTOWN     MOSUNNY   71  44  37 SW8G17    30.12S
$$

OHZ042-051>053-060>062-070>072-077>081-031600-
  SOUTHWEST OHIO

CITY           SKY/WX    TMP DP  RH WIND       PRES   REMARKS
CINC-COVINGTON MOSUNNY   71  49  45 SW8       30.13F
CINC-LUNKEN    MOSUNNY   68  53  58 S3        30.14S
HAMILTON       MOSUNNY   71  52  50 CALM      30.13F
DAYTON         PTSUNNY   69  48  47 S7        30.13F
WRIGHT-PAT AFB PTSUNNY   67  52  57 SW5       30.13S
DAYTON GENERAL MOSUNNY   68  49  50 SW7       30.12F
WILMINGTON     MOSUNNY   70  46  42 S7        30.13F
$$

OHZ036-037-039>041-045>050-054>059-063>069-073>076-082>088-031600-
  CENTRAL AND SOUTHEAST OHIO

CITY           SKY/WX    TMP DP  RH WIND       PRES   REMARKS
COLUMBUS       PTSUNNY   66  48  52 S6        30.13S
OSU AIRPORT    MOSUNNY   70  48  45 S3        30.13S
BOLTON FIELD   SUNNY     66  52  59 S5        30.14S
RICKENBACK AFB PTSUNNY   67  48  50 S5        30.13F
NEWARK         MOSUNNY   70  50  49 VRB5      30.13S
MARION         MOSUNNY   71  46  40 SW7       30.12S
LANCASTER      PTSUNNY   69  49  48 S3        30.15S
ZANESVILLE     PTSUNNY   68  47  46 SW3       30.14S
NEW PHILLY     SUNNY     72  48  42 CALM      30.14S
$$



USA.gov is the U.S. government's official web portal to all federal, state and local government web resources and services.